Regional Weather Roundup
Issued by NWS Albany, NY

Home | Current Version | Previous Version | Graphics & Text | Print | Product List | Glossary On
Versions: 1 2 3 4 5 6 7 8 9 10 11 12 13 14 15 16 17 18 19 20 21 22 23 24 25 26 27 28 29 30 31 32 33 34 35 36 37 38 39 40 41 42 43 44 45 46 47 48 49 50
000
ASUS41 KALY 162010
RWRALY

NEW YORK STATE HOURLY WEATHER ROUNDUP
NATIONAL WEATHER SERVICE ALBANY NY
300 PM EST TUE DEC 16 2014

NOTE: "FAIR" INDICATES FEW OR NO CLOUDS BELOW 12,000 FEET WITH NO
SIGNIFICANT WEATHER AND/OR NO OBSTRUCTIONS TO VISIBILITY.

NYZ032-033-038>043-046>054-057>066-NYZ062>081-162100-
EAST


CITY           SKY/WX    TMP DP  RH WIND       PRES   REMARKS
ALBANY         CLOUDY    39  33  79 S6        29.98F WCI  35
GLENS FALLS    CLOUDY    34  29  82 E3        29.99S
POUGHKEEPSIE   CLOUDY    44  37  76 SE6       29.99F
NEWBURGH       CLOUDY    41  37  87 CALM      29.99F
MONTGOMERY     CLOUDY    39  34  82 NE5       29.96F
WHITE PLAINS   CLOUDY    43  38  82 SE7       29.99S
ISLIP          CLOUDY    47  39  74 E5        29.99F
NEW YORK CITY  CLOUDY    44  39  82 NE9       30.00F
CENTRAL PARK   PTSUNNY   48  38  68 SE6       30.01F
$$

NYZ005>009-017-018-044>046-055-056-162100-
CENTRAL


CITY           SKY/WX    TMP DP  RH WIND       PRES   REMARKS
FULTON         HVY RAIN  39  35  86 SE10      29.80F FOG     WCI  32
SYRACUSE       RAIN      39  36  89 E10       29.82S FOG     WCI  32
ROME           CLOUDY    37  33  85 E12       29.89F WCI  29
ELMIRA         CLOUDY    44  39  82 SW8       29.80S HAZE
BINGHAMTON     LGT RAIN  37  36  96 SE13      29.82R FOG     WCI  29
MONTICELLO     CLOUDY    36  36 100 E7        29.93F VSB 1/2 WCI  30
$$

NYZ026>034-041>043-162100-
NORTH


CITY           SKY/WX    TMP DP  RH WIND       PRES   REMARKS
WATERTOWN      CLOUDY    39  31  72 NE8       29.81F WCI  33
FORT DRUM      NOT AVBL
MASSENA        CLOUDY    32  27  81 E12       29.93F WCI  23
SARANAC LAKE   CLOUDY    29  27  92 NE6       29.84F WCI  23
PLATTSBURGH    CLOUDY    36  31  82 CALM      29.94F
$$

NYZ001>004-010>016-019>021-162100-
WEST


CITY           SKY/WX    TMP DP  RH WIND       PRES   REMARKS
NIAGARA FALLS  LGT RAIN  42  40  92 SE3       29.70R FOG
BUFFALO        CLOUDY    44  41  89 S6        29.70S
DUNKIRK        CLOUDY    47  41  80 S21G29    29.70R
JAMESTOWN      CLOUDY    39  37  93 S7        29.71R WCI  34
WELLSVILLE     CLOUDY    39  36  89 SE9       29.75S WCI  33
ROCHESTER      LGT RAIN  41  40  96 S5        29.74S FOG
PENN YAN       CLOUDY    42  40  92 S3        29.77S FOG
$$

             KEY
       WCI = WIND CHILL INDEX
       VSB = VISIBILITY
       HX  = HEAT INDEX
$$



USA.gov is the U.S. government's official web portal to all federal, state and local government web resources and services.